Regional Weather Roundup
Issued by NWS

Home | Current Version | Previous Version | Graphics & Text | Print | Product List | Glossary On
Versions: 1 2 3 4 5 6 7 8 9 10 11 12 13 14 15 16 17 18 19 20 21 22 23 24 25 26 27
000
ASUS45 KTFX 190510
RWRMT
MONTANA REGIONAL WEATHER ROUNDUP
NATIONAL WEATHER SERVICE GREAT FALLS MT
1000 PM MST SUN FEB 18 2018

NOTE: "FAIR" INDICATES FEW OR NO CLOUDS BELOW 12000 FEET WITH NO
SIGNIFICANT WEATHER AND/OR OBSTRUCTIONS TO VISIBILITY.

MTZ001>007-043-190600-
WEST OF THE DIVIDE

CITY           SKY/WX    TMP DP  RH WIND       PRES   REMARKS
KALISPELL      CLOUDY     7  -4  60 NE23G29   29.96S WCI -14
MISSOULA       CLOUDY     9  -4  55 E16G23    29.88R WCI  -8
BUTTE          LGT SNOW  -1  -7  75 W7        29.69R WCI -14
MULLAN PASS    CLOUDY    -2  -5  87 E8        29.56R WCI -17
ANACONDA         N/A      0  -8  71 MISG      29.76S
DEER LODGE       N/A      0  -9  65 MISG      29.83R
HAMILTON         N/A     10   0  61 MISG      29.79S
RONAN            N/A      7   5  92 E5        29.90S
$$

MTZ008-052>055-190600-
SOUTHWEST MONTANA

CITY           SKY/WX    TMP DP  RH WIND       PRES   REMARKS
BOZEMAN        CLOUDY     4  -3  73 W8        29.79R WCI  -9
DILLON         LGT SNOW  -3  -3 100 NE18      29.67R FOG     WCI -25
ENNIS          LGT SNOW   1  -6  71 NW8       29.72R WCI -12
W YELLOWSTONE  SNOW       5   1  85 W5        29.48R VSB 1/2
THREE FORKS      N/A      6  -3  66 N7        29.82S WCI  -6
$$

MTZ009-010-012-014-046-048-049-054-190600-
EAST SLOPES AND CENTRAL MONTANA

CITY           SKY/WX    TMP DP  RH WIND       PRES   REMARKS
CUT BANK       CLOUDY   -12 -17  78 NW7       30.02R WCI -27
GREAT FALLS    MOCLDY    -6 -10  83 N8        30.02R WCI -21
MALMSTROM AFB  MOCLDY    -6  -8  88 NE6       30.05R WCI -18
HELENA         CLOUDY     1  -7  68 NW10      29.93R WCI -15
AUGUSTA        FLURRIES  -8 -11  83 NE9       29.94R WCI -25
BOWMANS CRNR   LGT SNOW  -6 -10  84 N7        29.94R WCI -20
FAIRFIELD      FLURRIES  -6 -11  79 W6        30.00R WCI -19
POWER          LGT SNOW  -5  -9  82 N8        30.01R WCI -20
RAYNESFORD     FAIR      -5 -10  80 CALM      29.97R
ULM            FLURRIES  -3  -7  86 NE8       30.03R WCI -18
WHITE SULPHUR    N/A     -2  -8  78 NE5       29.78S
$$

MTZ011-013-016-021-045-047-050-051-190600-
NORTH CENTRAL MONTANA

CITY           SKY/WX    TMP DP  RH WIND       PRES   REMARKS
HAVRE          FAIR     -11 -13  91 SW3       30.14R
LEWISTOWN      CLOUDY    -3  -5  90 NW6       29.95S WCI -15
N BAR RANCH    CLOUDY    -2  -9  71 CALM      29.94S
CHINOOK          N/A      0  -6  78 CALM      30.16R
GEYSER         MOCLDY    -8 -11  84 E8        29.97R WCI -23
STANFORD       SNOWSHWR  -6  -9  86 NW5       29.93S
WINIFRED       LGT SNOW  -2  -6  84 E3        30.00R
$$

MTZ017>020-022>027-061-062-190600-
NORTHEAST MONTANA

CITY           SKY/WX    TMP DP  RH WIND       PRES   REMARKS
GLASGOW        CLOUDY     1  -4  79 N7        30.11S WCI -12
GLENDIVE       CLOUDY     2  -2  83 NW6       30.10R WCI  -9
JORDAN           N/A     -5 -10  79 NW10      30.09R WCI -23
MALTA          CLOUDY   -13 -18  77 W3        30.15R
SIDNEY         FAIR       0  -6  76 NW5       30.12R
WOLF POINT     FAIR      -6 -13  71 NW5       30.14S
PLENTYWOOD       N/A      0  -6  78 CALM      30.10R
POPLAR           N/A     -8 -11  84 CALM      30.15S
$$

MTZ028>42-056>058-190600-
SOUTHCENTRAL AND SOUTHEAST MONTANA

CITY           SKY/WX    TMP DP  RH WIND       PRES   REMARKS
BAKER          LGT SNOW   4   0  83 N7        30.03R FOG     WCI  -8
BILLINGS       FLURRIES   1  -3  83 NE10      29.99R WCI -15
LIVINGSTON     FAIR       0  -4  83 E18       29.81R WCI -21
MILES CITY     LGT SNOW   4   1  88 N6        30.08S FOG     WCI  -7
BIG TIMBER     CLOUDY     0  -4  85 N13       29.91S FOG     WCI -18
FORSYTH          N/A      3   1  92 CALM      30.09R
HARLOWTON      FLURRIES  -2  -6  81 NE12      29.91S WCI -19
LAUREL           N/A      1  -2  85 NE14      30.00F WCI -17
$$

REGIONAL REPORTS...DAKOTAS

CITY           SKY/WX    TMP DP  RH WIND       PRES   REMARKS
WILLISTON      FAIR      -6  -9  86 CALM      30.11F
MINOT          FAIR       2  -8  63 NW10      30.11R WCI -14
DICKINSON      CLOUDY     5  -2  72 N7        30.02R WCI  -7
BEACH          FLURRIES   3  -2  78 N5        30.08R
CROSBY         FAIR     -17 -22  76 SW6       30.12S WCI -31
TIOGA          FAIR      -8 -11  84 CALM      30.09F
BISMARCK       CLOUDY     8   0  69 N10       30.09R WCI  -6
GRAND FORKS    MOCLDY     8  -1  66 N23       30.08R WCI -13
FARGO          CLOUDY    10   4  76 N18       30.03R WCI  -8
BUFFALO SD       N/A      5  -1  76 NE13      29.92R WCI -12
RAPID CITY     CLOUDY     5   2  87 N22       29.92F FOG     WCI -16
$$

REGIONAL REPORTS...WYOMING/IDAHO/WASHINGTON

CITY           SKY/WX    TMP DP  RH WIND       PRES   REMARKS
GILLETTE       LGT SNOW   2  -2  83 N14       29.87R FOG     WCI -16
SHERIDAN       CLOUDY     4   0  83 NW7       29.94S WCI  -8
BUFFALO WY     CLOUDY     2  -2  83 N13       29.83F WCI -15
CODY           LGT SNOW   0  -6  76 N7        29.79F WCI -13
YELLOWSTONE LA   N/A      8   6  92 CALM      29.44F
IDAHO FALLS    FAIR      26  22  84 S16       29.51F WCI  14
SALMON         CLOUDY    19   9  65 N18       29.63R WCI   4
BOISE          FAIR      26  21  81 S3        29.62S
SPOKANE        MOCLDY    16   5  62 NE13      29.81R WCI   2
$$

REGIONAL REPORTS...ALBERTA

CITY           SKY/WX    TMP DP  RH WIND       PRES   REMARKS
CALGARY        PTCLDY    -4  -8  84 CALM      30.03S
CARDSTON         N/A     -4  -9  77 E1          N/A
EDMONTON       CLOUDY     1 -11  55 W7        30.10F WCI -11
FORT MCMURRAY  CLOUDY    -6 -11  77 S7        30.04F WCI -20
HIGH LEVEL     CLOUDY    14   3  62 CALM      29.97F
LETHBRIDGE     MOCLDY    -9 -17  70 SW8       30.10R WCI -26
LLOYDMINSTER   CLEAR    -11 -17  77 W9        30.06S WCI -29
MEDICINE HAT   FLURRIES -13 -17  84 SW6       30.15S WCI -27
MILK RIVER       N/A    -13 -18  77 NW9         N/A  WCI -31
PEACE RIVER    MOCLDY     5  -6  61 W10       30.08F WCI -10
PINCHER CREEK  FLURRIES  -6  -9  84 NW6       30.01S WCI -18
WATERTON GATE    N/A    -11 -17  77 NE1         N/A
$$

REGIONAL REPORTS...SASKATCHEWAN

CITY           SKY/WX    TMP DP  RH WIND       PRES   REMARKS
CORONACH         N/A      0  -8  71 W7          N/A  WCI -13
CYPRESS HILLS    N/A     -8 -13  77 NW5         N/A
ESTEVAN        PTCLDY   -15 -18  84 SW5       30.12R
MOOSE JAW        N/A     -9 -15  77 W9          N/A  WCI -27
PRINCE ALBERT  CLEAR    -20 -26  76 CALM      30.18R
REGINA         CLEAR    -11 -15  84 NW6       30.11R WCI -25
ROCKGLEN         N/A     -9 -17  70 W2          N/A
SASKATOON      PTCLDY   -13 -18  77 S6        30.15R WCI -27
SWIFT CURRENT  CLEAR     -9 -15  77 W7        30.06R WCI -24
VAL MARIE        N/A     -4  -9  77 NW12        N/A  WCI -22
$$




USA.gov is the U.S. government's official web portal to all federal, state and local government web resources and services.